User: anonymous   Login
Location: Caltech
(34.1382°N, 118.1253°W)
Time: 19:04:34
(UTC-07:00)
Language:

Cosmos 44 Rocket - Orbit

View from above orbital plane
View from above orbital plane
View from above satellite
View from above satellite

Ground track
Ground track

The orbit data is extracted from the following two-line orbital elements,

1 00877U 64053B   15117.27147421  .00000372  00000-0  10216-3 0  9998
2 00877 065.0794 056.7547 0053143 047.8019 312.7572 14.59095144687420
Epoch (UTC): 27 April 2015 06:30:55
Eccentricity: 0.0053143
inclination: 65.0794°
perigee height: 658 km
apogee height: 733 km
right ascension of ascending node: 56.7547°
argument of perigee: 47.8019°
revolutions per day: 14.59095144
mean anomaly at epoch: 312.7572°
orbit number at epoch: 68742

The dashed part of the orbit path shows where the satellite is in the earth's shadow,  

DLR